Weather History for KMKE - December, 2012

Change the Weather History Date:

Thursday, December 27, 2012

  Actual Average Record
Temperature  
Mean Temperature 28 °F 24 °F  
Max Temperature 29 °F 30 °F 55 °F (1946)
Min Temperature 26 °F 17 °F -17 °F (1886)
Degree Days  
Heating Degree Days 37 41  
Month to date heating degree days 798 1026  
Since 1 July heating degree days 2170 2391  
Cooling Degree Days 0 0  
Month to date cooling degree days 0 0  
Year to date cooling degree days 1041 641  
Moisture  
Dew Point 21 °F    
Average Humidity 75    
Maximum Humidity 81    
Minimum Humidity 69    
Precipitation  
Precipitation T in 0.05 in 1.04 in (2008)
Month to date precipitation 3.80 1.81  
Year to date precipitation 29.22 34.53  
Snow  
Snow T in 0.40 in 5.20 in (1887)
Month to date snowfall 3.5 9.0  
Since 1 July snowfall 3.5 11.7  
Snow Depth 1.00 in    
Sea Level Pressure  
Sea Level Pressure 30.16 in    
Wind  
Wind Speed 8 mph (NNW)    
Max Wind Speed 16 mph    
Max Gust Speed 21 mph    
Visibility 10 miles    
Events Snow    
T = Trace of Precipitation, MM = Missing Value Source: NWS Daily Summary

Daily Weather History Graph

Daily Weather History Graph

Search for Another Location

Airport or City:

Trip Planner

Search our weather history database for the weather conditions in past years. The results will help you decide how hot, cold, wet, or windy it might be!

Date:

Astronomy

Dec. 27, 2012 Rise Set
Actual Time 7:22 AM CST 4:24 PM CST
Civil Twilight 6:49 AM CST 4:56 PM CST
Nautical Twilight 6:13 AM CST 5:32 PM CST
Astronomical Twilight 5:39 AM CST 6:06 PM CST
Moon 4:07 PM CST (12/27) 6:31 AM CST (12/27)
Length of Visible Light 10h 06m
Length of Day
9h 02m
Full, 100% of the Moon is Illuminated
Dec 27
Full
Dec 28
Full
Jan 4
Last Quarter
Jan 11
New
Jan 18
First Quarter

Hourly Weather History & Observations

Time (CST) Temp. Windchill Dew Point Humidity Pressure Visibility Wind Dir Wind Speed Gust Speed Precip Events Conditions
12:48 AM 26.6 °F 15.7 °F 19.4 °F 74% 30.08 in 10.0 mi NNW 12.7 mph - N/A   Overcast
12:52 AM 26.1 °F 16.2 °F 19.9 °F 78% 30.11 in 10.0 mi NNW 10.4 mph - N/A   Overcast
1:52 AM 27.0 °F 15.6 °F 19.9 °F 75% 30.14 in 10.0 mi NW 13.8 mph - N/A   Overcast
2:52 AM 26.1 °F 16.2 °F 19.9 °F 78% 30.15 in 10.0 mi NNW 10.4 mph - N/A   Overcast
3:52 AM 27.0 °F 16.7 °F 19.9 °F 75% 30.16 in 10.0 mi NNW 11.5 mph - N/A   Overcast
4:52 AM 27.0 °F 18.0 °F 21.0 °F 78% 30.17 in 10.0 mi NNW 9.2 mph - N/A   Overcast
5:07 AM 26.6 °F 16.8 °F 19.4 °F 74% 30.13 in 10.0 mi NNW 10.4 mph 17.3 mph N/A   Overcast
5:28 AM 26.6 °F 16.2 °F 19.4 °F 74% 30.13 in 10.0 mi NNW 11.5 mph - N/A   Overcast
5:52 AM 27.0 °F 18.0 °F 19.9 °F 75% 30.17 in 10.0 mi NNW 9.2 mph - N/A   Overcast
6:23 AM 26.6 °F 16.2 °F 19.4 °F 74% 30.14 in 10.0 mi NNW 11.5 mph - N/A   Overcast
6:52 AM 27.0 °F 17.3 °F 19.9 °F 75% 30.19 in 10.0 mi NNW 10.4 mph - N/A   Overcast
7:52 AM 27.0 °F 16.7 °F 19.0 °F 72% 30.20 in 10.0 mi NNW 11.5 mph - N/A   Overcast
8:10 AM 26.6 °F 16.2 °F 19.4 °F 74% 30.17 in 10.0 mi NNW 11.5 mph - N/A   Overcast
8:52 AM 27.0 °F 16.1 °F 19.0 °F 72% 30.20 in 10.0 mi North 12.7 mph - N/A   Overcast
9:01 AM 26.6 °F 16.8 °F 19.4 °F 74% 30.17 in 10.0 mi North 10.4 mph - N/A   Overcast
9:52 AM 27.0 °F 18.0 °F 19.9 °F 75% 30.22 in 10.0 mi NNW 9.2 mph - N/A   Overcast
10:52 AM 28.0 °F 19.3 °F 19.9 °F 72% 30.22 in 10.0 mi North 9.2 mph - N/A   Overcast
11:02 AM 28.4 °F 19.1 °F 19.4 °F 69% 30.18 in 10.0 mi NNW 10.4 mph - N/A   Overcast
11:52 AM 28.0 °F 20.0 °F 21.0 °F 75% 30.19 in 10.0 mi North 8.1 mph - N/A   Overcast
12:52 PM 28.9 °F 21.1 °F 21.0 °F 72% 30.18 in 10.0 mi North 8.1 mph - N/A   Overcast
1:52 PM 28.9 °F 20.4 °F 21.0 °F 72% 30.17 in 10.0 mi NNE 9.2 mph - N/A   Overcast
2:52 PM 28.9 °F 20.4 °F 21.9 °F 75% 30.17 in 10.0 mi North 9.2 mph - N/A   Overcast
3:52 PM 28.0 °F 21.7 °F 21.0 °F 75% 30.18 in 10.0 mi North 5.8 mph - N/A   Overcast
4:52 PM 28.0 °F 21.7 °F 21.0 °F 75% 30.19 in 10.0 mi North 5.8 mph - N/A   Overcast
5:52 PM 28.0 °F 21.7 °F 21.9 °F 78% 30.19 in 9.0 mi North 5.8 mph - 0.00 in Snow Light Snow
6:42 PM 28.4 °F 21.2 °F 21.2 °F 74% 30.15 in 9.0 mi North 6.9 mph - 0.00 in Snow Light Snow
6:52 PM 28.0 °F 21.7 °F 21.9 °F 78% 30.18 in 9.0 mi NNW 5.8 mph - 0.00 in Snow Light Snow
7:52 PM 28.0 °F 19.3 °F 21.9 °F 78% 30.18 in 9.0 mi NNW 9.2 mph - 0.00 in Snow Light Snow
8:52 PM 28.0 °F 21.7 °F 21.9 °F 78% 30.16 in 10.0 mi North 5.8 mph - 0.00 in   Overcast
9:21 PM 28.4 °F - 23.0 °F 80% 30.13 in 10.0 mi Calm Calm - N/A   Overcast
9:52 PM 28.0 °F 22.8 °F 23.0 °F 81% 30.16 in 10.0 mi NNW 4.6 mph - N/A   Overcast
10:50 PM 28.4 °F 24.6 °F 23.0 °F 80% 30.13 in 10.0 mi NNW 3.5 mph - N/A   Overcast
10:52 PM 28.0 °F 22.8 °F 23.0 °F 81% 30.16 in 10.0 mi NNW 4.6 mph - N/A   Overcast
11:00 PM 28.4 °F - 23.0 °F 80% 30.13 in 10.0 mi Calm Calm - N/A   Overcast
11:52 PM 28.0 °F 24.2 °F 23.0 °F 81% 30.15 in 10.0 mi WNW 3.5 mph - 0.00 in Snow Light Snow